Flag for Hungary Weather past 2 weeks in Debrecen, Hungary

Now
81 °F

Sunny.


Feels Like: 82 °F
Forecast: 71 / 96 °F
Wind: No wind

Location: Debrecen Airport

Current Time: Aug 31, 2015 at 9:21:36 AM

Latest Report: Aug 31, 2015 at 8:45 AM


Visibility: 10 mi

Pressure: 30.09 "Hg

Humidity: 54%

Dew point: 63 °F

Location of DebrecenLocation

Historic Weather in Debrecen — Graph

°F

Debrecen temperature yesterday

Maximum temperature yesterday: 93 °F (at 1:15 PM)
Minimum temperature yesterday: 68 °F (at 4:45 AM)
Average temperature yesterday: 83 °F

Past Weeks' High & Low Weather Summary

 TemperatureHumidityPressure
High93 °F (Aug 29, 3:15 PM)100% (Aug 24, 4:45 AM)30.21 "Hg (Aug 24, 4:45 AM)
Low55 °F (Aug 24, 4:45 AM)28% (Aug 29, 3:15 PM)29.71 "Hg (Aug 16, 3:45 PM)
Average72 °F69%30.04 "Hg
* Reported Aug 16 7:15 AM — Aug 31 7:15 AM, Debrecen, Weather by CustomWeather, © 2015

Note: Actual official high and low records may vary slightly from our data, if they occured in-between our weather recording intervals... More about our weather records

Advertising

Debrecen weather history for previous 24 hours

 ConditionsComfort  
Time TempWeatherWind HumidityBarometerVisibility
7:15 AM
Mon, Aug 31
70 °FSunny.No wind83%30.09 "Hg10 mi
6:45 AM68 °FClear.No wind83%30.09 "Hg10 mi
6:15 AM66 °FPassing clouds.No wind83%30.09 "Hg5 mi
5:45 AM66 °FPassing clouds.No wind88%30.09 "Hg5 mi
4:45 AM66 °FPassing clouds.No wind88%30.12 "Hg5 mi
4:15 PM
Sun, Aug 30
93 °FSunny.7 mph30%30.15 "Hg10 mi
3:45 PM93 °FSunny.7 mph30%30.15 "Hg10 mi
3:15 PM93 °FSunny.7 mph34%30.15 "Hg10 mi
2:45 PM93 °FSunny.5 mph32%30.18 "Hg10 mi
2:15 PM93 °FSunny.6 mph30%30.18 "Hg10 mi
1:45 PM93 °FSunny.1 mph34%30.18 "Hg10 mi
1:15 PM93 °FSunny.2 mph34%30.18 "Hg10 mi
12:45 PM91 °FSunny.2 mph36%30.21 "Hg10 mi
12:15 PM90 °FSunny.5 mph36%30.21 "Hg10 mi
11:45 AM88 °FSunny.No wind49%30.21 "Hg10 mi
11:15 AM86 °FSunny.1 mph52%30.21 "Hg10 mi
10:45 AM84 °FSunny.No wind55%30.21 "Hg10 mi
10:15 AM82 °FSunny.No wind55%30.21 "Hg10 mi
9:45 AM81 °FSunny.No wind62%30.21 "Hg10 mi
9:15 AM77 °FSunny.1 mph69%30.21 "Hg10 mi
Weather by CustomWeather, © 2015

See weather overviewHow to use our weather pages